Malmstrom AFB, MT

4:36 AM MST on January 17, 2018 (GMT -0700)
Malmstrom AFB

Weather History for KGFA - January, 2013

Change the Weather History Date:

Friday, January 18, 2013

  Actual Average (KGTF) Record (KGTF)
Temperature  
Mean Temperature 40 °F -  
Max Temperature 46 °F 35 °F 60 °F (1900)
Min Temperature 35 °F 15 °F -28 °F (1935)
Degree Days  
Heating Degree Days 24    
Moisture  
Dew Point 18 °F    
Average Humidity 39    
Maximum Humidity 54    
Minimum Humidity 29    
Precipitation  
Precipitation 0.00 in - - ()
Sea Level Pressure  
Sea Level Pressure 30.03 in    
Wind  
Wind Speed 21 mph (SSW)    
Max Wind Speed 30 mph    
Max Gust Speed 37 mph    
Visibility 10 miles    
Events      
Averages and records for this station are not official NWS values.
T = Trace of Precipitation, MM = Missing Value Source: NWS Daily Summary

Daily Weather History Graph

Daily Weather History Graph

Search for Another Location

Airport or City:

Trip Planner

Search our weather history database for the weather conditions in past years. The results will help you decide how hot, cold, wet, or windy it might be!

Date:

Astronomy

Jan. 18, 2013 Rise Set
Actual Time 8:05 AM MST 5:05 PM MST
Civil Twilight 7:31 AM MST 5:39 PM MST
Nautical Twilight 6:53 AM MST 6:17 PM MST
Astronomical Twilight 6:16 AM MST 6:54 PM MST
Moon 11:10 AM MST (1/18) 12:32 AM MST (1/18)
Length of Visible Light 10h 08m
Length of Day
9h 00m
Waxing Crescent, 48% of the Moon is Illuminated
Jan 18
Waxing Crescent
Jan 18
First Quarter
Jan 26
Full
Feb 3
Last Quarter
Feb 10
New

Hourly Weather History & Observations

Time (MST) Temp. Windchill Dew Point Humidity Pressure Visibility Wind Dir Wind Speed Gust Speed Precip Events Conditions
12:56 AM 42.1 °F 32.1 °F 21.0 °F 43% 30.09 in 10.0 mi SSW 25.3 mph 34.5 mph N/A   Clear
1:56 AM 43.0 °F 33.3 °F 19.0 °F 38% 30.06 in 10.0 mi SSW 25.3 mph - N/A   Clear
2:56 AM 42.1 °F 31.3 °F 19.0 °F 40% 30.04 in 10.0 mi SSW 29.9 mph - N/A   Clear
3:56 AM 43.0 °F 33.8 °F 19.0 °F 38% 30.04 in 10.0 mi SSW 23.0 mph 32.2 mph N/A   Clear
5:56 AM 42.1 °F 33.1 °F 19.9 °F 41% 30.01 in 10.0 mi SSW 20.7 mph - N/A   Clear
6:56 AM 41.0 °F 32.2 °F 19.9 °F 43% 30.02 in 10.0 mi SSW 18.4 mph - N/A   Clear
7:56 AM 42.1 °F 32.1 °F 18.0 °F 38% 30.01 in 10.0 mi SSW 25.3 mph 31.1 mph N/A   Clear
8:56 AM 43.0 °F 32.7 °F 18.0 °F 37% 30.01 in 10.0 mi SSW 28.8 mph 36.8 mph N/A   Clear
9:56 AM 44.1 °F 34.0 °F 18.0 °F 35% 29.99 in 10.0 mi SSW 29.9 mph 35.7 mph N/A   Clear
11:56 AM 45.0 °F 36.0 °F 18.0 °F 34% 29.98 in 10.0 mi SSW 25.3 mph - N/A   Scattered Clouds
12:56 PM 46.0 °F 37.8 °F 16.0 °F 30% 29.97 in 10.0 mi SSW 23.0 mph 29.9 mph N/A   Scattered Clouds
1:56 PM 46.9 °F - 16.0 °F 29% 30.00 in 10.0 mi SW 9.2 mph - N/A   Partly Cloudy
2:56 PM 46.9 °F - 16.0 °F 29% 29.99 in 10.0 mi SW 6.9 mph - N/A   Clear
3:56 PM 46.9 °F - 16.0 °F 29% 29.99 in 10.0 mi WSW 8.1 mph - N/A   Clear
4:56 PM 45.0 °F 39.3 °F 18.0 °F 34% 29.99 in 10.0 mi SW 11.5 mph - N/A   Partly Cloudy
5:56 PM 45.0 °F 40.1 °F 17.1 °F 33% 30.03 in 10.0 mi WSW 9.2 mph - N/A   Clear
6:56 PM 42.1 °F 35.7 °F 18.0 °F 38% 30.04 in 10.0 mi SW 11.5 mph - N/A   Clear
7:56 PM 43.0 °F 36.8 °F 17.1 °F 35% 30.06 in 10.0 mi WSW 11.5 mph - N/A   Clear
8:56 PM 35.1 °F 26.9 °F 19.9 °F 54% 30.08 in 10.0 mi SSW 11.5 mph - N/A   Clear
9:56 PM 36.0 °F 26.3 °F 19.0 °F 50% 30.09 in 10.0 mi South 16.1 mph - N/A   Clear
10:56 PM 36.0 °F 26.3 °F 18.0 °F 48% 30.11 in 10.0 mi SSW 16.1 mph - N/A   Clear
11:56 PM 35.1 °F 25.2 °F 19.0 °F 52% 30.12 in 10.0 mi South 16.1 mph - N/A   Clear